STARLINK-32886, 62807

Orbit data source: Space-Track

STARLINK-32886, 62807 is a payload satellite owned by SpaceX/Seattle (US) in LEO that was launched on Fri, 24 Jan 2025 UTC via an FALCON 9 launch vehicle from the Air Force Western Test Range (AFWTR). Payload-class satellites include a variety of spacecraft equipped with specific instruments for various scientific and technological missions. These include communications satellites like Starlink; space stations such as the ISS; scientific satellites like the Hubble; Earth observation satellites from companies like Planet Labs, Umbra, and HawkEye 360; GPS; miniature CubeSats for education and research; and military/defense satellites.

Loading next visibility...
Identifier
62807, 2025-018B
Orbit
LEO
Country
Flag of USUS
Related business
Manufacturer
SpaceX/Seattle
Mission
Operational spacecraft
Bus & Motor
STARLINK V2M, Unknown motor
Mass
730 kg wet, ~700 kg dry
Launch date (UTC)
2025-01-24 (9 months ago)
Launch vehicle
FALCON 9
Launch site
Air Force Western Test Range (AFWTR)
Object type
Payload
Rocket body
Debris
Shape & HBR
Unknown shape, 17.7 m
Radar Cross Section
Large (>1 m²)

Expand to show TLE details & history
Last TLE update: 11 hours ago

TLE from 11 hours ago
0 STARLINK-32886
1 62807U 25018B   25289.10823060  .00024477  00000-0  83556-3 0  9999
2 62807  53.1608 261.0701 0001505 104.6120 255.5048 15.30210688 41042
Epoch: 2025-10-16T02:35Z
TLE epoch observation values (Epoch: 2025-10-16T02:35:51.123Z)
Latitude
-0.00002°
Longitude
-162.76561°
Altitude
476.341 km
Speed
7.629 km/s
True Right ascension
17h 24m 16s
True Declination
0° 00' 00"
Sunlit
Object was in daylight at epoch
Visualization orbit readout
Latitude
Unknown
Longitude
Unknown
Altitude
Unknown
Speed
Unknown
Apparent Right ascension
Unknown
Apparent Declination
Unknown
Sunlit
N/A
Visualization observer readout
Local Sidereal Time
07:54:28
Azimuth
Unknown
Elevation
Unknown
Doppler factor
Unknown
Orbital elements
Apogee altitude
476.471 km
Perigee altitude
474.408 km
Semi-major axis
6,853.576 km
Eccentricity
0.00015
Inclination
53.1608°
RAAN
261.0701°
Arg. of periapsis
104.612°
True anomaly
255.4881°
Mean anomaly
255.5048°
Eccentric anomaly
255.49645°
Mean motion
3.82532 °/min
Orbital period
94.11 mins
BSTAR
0.00083556
Loading maneuver chart data...
Computing Atmospheric mass density...
Loading historical data...
Loading historical data...
Loading historical data...
Loading historical data...
Loading historical data...
Loading historical data...
Loading historical data...

Documentation

Showing up to 5 results
|